User: anonymous   Login
Location: Unspecified
(0.0000°N, 0.0000°E)
Time: 09:22:52
(UTC+00:00)
Language:

Kosmos-2195 - Orbit

View from above orbital plane
View from above orbital plane
View from above satellite
View from above satellite

Ground track
Ground track

The orbit data is extracted from the following two-line orbital elements,

1 22006U 92036A   17327.26858630 +.00000057 +00000-0 +43701-4 0  9999
2 22006 082.9364 218.0099 0037271 000.8444 117.7236 13.74919045274286
Epoch (UTC): 23 November 2017 06:26:45
Eccentricity: 0.0037271
inclination: 82.9364°
perigee height: 954 km
apogee height: 1009 km
right ascension of ascending node: 218.0099°
argument of perigee: 0.8444°
revolutions per day: 13.74919045
mean anomaly at epoch: 117.7236°
orbit number at epoch: 27428

The dashed part of the orbit path shows where the satellite is in the earth's shadow,  

DLR